Weather History for Simferopol, Ukraine

Change the Weather History Date:

Thursday, February 7, 2013

  Actual Average Record
Temperature  
Mean Temperature 50 °F -  
Max Temperature 65 °F - - ()
Min Temperature 34 °F - - ()
Degree Days  
Heating Degree Days 16    
Moisture  
Dew Point 39 °F    
Average Humidity 80    
Maximum Humidity 100    
Minimum Humidity 34    
Precipitation  
Precipitation 0.00 in - - ()
Sea Level Pressure  
Sea Level Pressure 29.78 in    
Wind  
Wind Speed 6 mph ()    
Max Wind Speed 16 mph    
Max Gust Speed -    
Visibility 1.9 miles    
Events Fog , Rain    
T = Trace of Precipitation, MM = Missing Value Source: Averaged Metar Reports

Daily Weather History Graph

Daily Weather History Graph

Search for Another Location

Airport:

Trip Planner

Search our weather history database for the weather conditions in past years. The results will help you decide how hot, cold, wet, or windy it might be!

Date:

Astronomy

Feb. 07, 2013 Rise Set
Actual Time 6:56 AM EET 5:00 PM EET
Civil Twilight 6:25 AM EET 5:31 PM EET
Nautical Twilight 5:50 AM EET 6:06 PM EET
Astronomical Twilight 5:16 AM EET 6:40 PM EET
Moon 4:22 AM EET (2/7) 1:57 PM EET (2/7)
Length of Visible Light 11h 05m
Length of Day
10h 03m
Waning Crescent, 11% of the Moon is Illuminated
Feb 7
Waning Crescent
Feb 10
New
Feb 17
First Quarter
Feb 25
Full
Mar 4
Last Quarter

Hourly Weather History & Observations

Time (EET) Temp. Windchill Dew Point Humidity Pressure Visibility Wind Dir Wind Speed Gust Speed Precip Events Conditions
12:00 AM 37.4 °F 32.2 °F 35.6 °F 93% 29.74 in - WSW 6.7 mph - N/A   Mist
12:11 AM 37.4 °F 32.2 °F 35.6 °F 93% 29.74 in 2.5 mi WSW 6.7 mph - N/A Fog Patches of Fog
12:30 AM 37.4 °F 33.9 °F 37.4 °F 100% 29.74 in - WSW 4.5 mph - N/A Fog Patches of Fog
12:36 AM 37.4 °F 33.9 °F 37.4 °F 100% 29.74 in 1.7 mi WSW 4.5 mph - N/A Fog Patches of Fog
12:38 AM 39.2 °F 36.0 °F 37.4 °F 93% 29.74 in 0.8 mi WSW 4.5 mph - N/A Fog Patches of Fog
12:42 AM 39.2 °F 36.0 °F 37.4 °F 93% 29.74 in 0.6 mi WSW 4.5 mph - N/A   Unknown
12:43 AM 37.4 °F 33.9 °F 37.4 °F 100% 29.74 in - WSW 4.5 mph - N/A   Unknown
12:56 AM 37.4 °F 32.2 °F 35.6 °F 93% 29.74 in 1.2 mi WSW 6.7 mph - N/A   Scattered Clouds
1:00 AM 37.4 °F 33.9 °F 35.6 °F 93% 29.74 in 1.3 mi WSW 4.5 mph - N/A   Scattered Clouds
1:09 AM 37.4 °F 33.9 °F 35.6 °F 93% 29.74 in 1.4 mi WSW 4.5 mph - N/A   Mostly Cloudy
1:17 AM 37.4 °F 33.9 °F 37.4 °F 100% 29.74 in 1.3 mi West 4.5 mph - N/A Fog Patches of Fog
1:19 AM 37.4 °F 33.9 °F 37.4 °F 100% 29.74 in 0.2 mi West 4.5 mph - N/A   Unknown
1:22 AM 37.4 °F 33.9 °F 37.4 °F 100% 29.74 in 0.2 mi WNW 4.5 mph - N/A Fog Fog
1:30 AM 37.4 °F 33.9 °F 37.4 °F 100% 29.77 in 0.1 mi Variable 4.5 mph - N/A Fog Fog
1:32 AM 37.4 °F 33.9 °F 37.4 °F 100% 29.77 in 0.1 mi Variable 4.5 mph - N/A Fog Fog
2:00 AM 39 °F - 39 °F 100% 29.79 in 0 mi Calm Calm - - Fog Heavy Fog
2:00 AM 39.2 °F 36.0 °F 39.2 °F 100% 29.77 in 0.0 mi NW 4.5 mph - N/A Fog Fog
2:30 AM 39.2 °F - 39.2 °F 100% 29.77 in 0.0 mi Calm Calm - N/A Fog Fog
3:00 AM 39.2 °F - 39.2 °F 100% 29.74 in 0.0 mi Calm Calm - N/A Fog Fog
3:05 AM 39.2 °F - 39.2 °F 100% 29.74 in 0.1 mi East 2.2 mph - N/A Fog Fog
3:15 AM 39.2 °F 36.0 °F 39.2 °F 100% 29.74 in 0.1 mi East 4.5 mph - N/A Fog Fog
3:30 AM 39.2 °F 36.0 °F 39.2 °F 100% 29.74 in 0.1 mi East 4.5 mph - N/A Fog Fog
3:49 AM 39.2 °F 34.4 °F 39.2 °F 100% 29.74 in 0.1 mi East 6.7 mph - N/A Fog Fog
4:00 AM 39.2 °F 34.4 °F 39.2 °F 100% 29.74 in 0.1 mi East 6.7 mph - N/A Fog Fog
4:21 AM 37.4 °F 30.9 °F 37.4 °F 100% 29.74 in 0.1 mi East 8.9 mph - N/A Fog Fog
4:30 AM 37.4 °F 29.9 °F 37.4 °F 100% 29.74 in 0.2 mi East 11.2 mph - N/A Fog Fog
4:40 AM 37.4 °F 29.9 °F 37.4 °F 100% 29.74 in 0.1 mi East 11.2 mph - N/A Fog Fog
5:00 AM 37 °F - 37 °F 100% 29.78 in 0 mi East 13.4 mph - - Fog Partial Fog
5:00 AM 37.4 °F 29.9 °F 37.4 °F 100% 29.74 in 0.1 mi East 11.2 mph - N/A   Unknown
5:06 AM 37.4 °F 29.9 °F 37.4 °F 100% 29.74 in 0.2 mi East 11.2 mph - N/A   Unknown
5:19 AM 35.6 °F 31.8 °F 35.6 °F 100% 29.74 in 0.8 mi East 4.5 mph - N/A Fog Patches of Fog
5:30 AM 35.6 °F 28.7 °F 35.6 °F 100% 29.74 in 1.4 mi ENE 8.9 mph - N/A Fog Patches of Fog
5:47 AM 35.6 °F 30.0 °F 35.6 °F 100% 29.77 in - East 6.7 mph - N/A Fog Patches of Fog
6:00 AM 35.6 °F 30.0 °F 35.6 °F 100% 29.77 in - East 6.7 mph - N/A   Mist
6:30 AM 37.4 °F - 37.4 °F 100% 29.77 in - Variable 2.2 mph - N/A   Clear
7:00 AM 39.2 °F 36.0 °F 39.2 °F 100% 29.77 in - South 4.5 mph - N/A   Clear
7:30 AM 39.2 °F 36.0 °F 37.4 °F 93% 29.77 in - South 4.5 mph - N/A   Clear
8:00 AM 41 °F - 39 °F 92% 29.82 in 6 mi SSE 6.7 mph - -   Partly Cloudy
8:00 AM 41.0 °F 38.1 °F 41.0 °F 100% 29.77 in - SSE 4.5 mph - N/A   Clear
8:30 AM 42.8 °F 40.2 °F 42.8 °F 100% 29.80 in - SE 4.5 mph - N/A   Clear
9:00 AM 46.4 °F 44.4 °F 44.6 °F 93% 29.80 in - Variable 4.5 mph - N/A   Clear
9:30 AM 50.0 °F - 48.2 °F 94% 29.80 in - SE 4.5 mph - N/A   Clear
10:00 AM 53.6 °F - 46.4 °F 77% 29.80 in 6.2 mi SSE 4.5 mph - N/A Rain Light Rain
10:30 AM 55.4 °F - 46.4 °F 72% 29.80 in 6.2 mi SSE 6.7 mph - N/A   Overcast
11:00 AM 56 °F - 44 °F 53% 29.82 in 6 mi SSE 11.2 mph - - Rain Light Rain
11:00 AM 59.0 °F - 46.4 °F 63% 29.80 in - SSE 13.4 mph - N/A   Clear
11:30 AM 62.6 °F - 44.6 °F 52% 29.80 in - South 15.7 mph - N/A   Clear
12:00 PM 62.6 °F - 46.4 °F 55% 29.80 in - South 13.4 mph - N/A   Clear
12:30 PM 62.6 °F - 44.6 °F 52% 29.80 in - SW 13.4 mph - N/A   Clear
1:00 PM 64.4 °F - 44.6 °F 49% 29.80 in - SW 11.2 mph - N/A   Clear
1:30 PM 62.6 °F - 44.6 °F 52% 29.80 in - SW 11.2 mph - N/A   Clear
2:00 PM 64 °F - 43 °F 34% 29.80 in 6 mi SW 11.2 mph - -   Partly Cloudy
2:00 PM 62.6 °F - 44.6 °F 52% 29.80 in - SW 11.2 mph - N/A   Clear
2:30 PM 64.4 °F - 44.6 °F 49% 29.80 in - WSW 8.9 mph - N/A   Clear
3:00 PM 62.6 °F - 44.6 °F 52% 29.80 in - West 8.9 mph - N/A   Clear
3:30 PM 62.6 °F - 42.8 °F 48% 29.80 in - West 6.7 mph - N/A   Clear
4:00 PM 59.0 °F - 44.6 °F 59% 29.80 in 6.2 mi Calm Calm - N/A   Mostly Cloudy
4:30 PM 57.2 °F - 44.6 °F 63% 29.80 in 6.2 mi Calm Calm - N/A   Mostly Cloudy
5:00 PM 57.2 °F - 44.6 °F 63% 29.83 in - Calm Calm - N/A   Clear
5:30 PM 55.4 °F - 42.8 °F 63% 29.83 in - ESE 4.5 mph - N/A   Mist
6:00 PM 53.6 °F - 39.2 °F 58% 29.83 in - SE 6.7 mph - N/A   Clear
6:30 PM 51.8 °F - 37.4 °F 58% 29.83 in - SE 6.7 mph - N/A   Mist
7:00 PM 50.0 °F - 37.4 °F 62% 29.83 in - ESE 8.9 mph - N/A   Mist
7:30 PM 50.0 °F - 37.4 °F 62% 29.83 in 3.1 mi SE 8.9 mph - N/A   Smoke
8:00 PM 48 °F - 36 °F 54% 29.84 in 6 mi ESE 11.2 mph - -  
8:00 PM 48.2 °F - 37.4 °F 66% 29.83 in - SE 8.9 mph - N/A   Clear
8:30 PM 48.2 °F - 35.6 °F 62% 29.80 in - ESE 8.9 mph - N/A   Clear
9:00 PM 48.2 °F - 35.6 °F 62% 29.80 in 3.1 mi ESE 8.9 mph - N/A   Smoke
9:30 PM 50.0 °F - 35.6 °F 58% 29.80 in - SE 11.2 mph - N/A   Clear
10:00 PM 50.0 °F - 35.6 °F 58% 29.80 in - ESE 13.4 mph - N/A   Clear
10:30 PM 50.0 °F - 33.8 °F 54% 29.80 in - ESE 13.4 mph - N/A   Clear
11:00 PM 51 °F - 32 °F 37% 29.81 in 6 mi ESE 15.7 mph - -   Mostly Cloudy
11:00 PM 51.8 °F - 35.6 °F 54% 29.77 in - SE 13.4 mph - N/A   Clear
11:30 PM 51.8 °F - 37.4 °F 58% 29.77 in - ESE 11.2 mph - N/A   Clear